sat.trackr.live / text

‹ back to catalog

STARLINK-3819

NORAD 52349 · 2022-045U

PAYLOAD ACTIVE UNKNOWN

§ Identity

Operator
Country
US
Launch date
2022-04-29
Launch site
AFETR
Launch vehicle
Mass (kg)
RCS (m²)

Purposes: comms

External: N2YO · Heavens-Above · Gunter

§ Orbital elements

Epoch: 2026-09-19T23:12:50.007744Z

Period
93.79 min
Inclination
53.1611°
Eccentricity
0.0001191
Mean motion
15.35407828 rev/d
Perigee alt
458.9 km
Apogee alt
460.5 km
Semi-major
6,837.8 km
B*
-5.5131e-5
RAAN
32.0121°
Arg perigee
120.0883°
Mean anomaly
240.0238°
Rev number
24,531

§ Raw data

STARLINK-38191 52349U 22045U   26262.96724546 -.00002303  00000+0 -55131-4 0  99952 52349  53.1611  32.0121 0001191 120.0883 240.0238 15.35407828245312

JSON: /api/v1/satellites/52349 · /tle

For live sub-satellite position, see the globe view (requires WebGL).

§ Visibility from observer

Set your observer location to see the next 7 days of passes ≥ 10°. The values pass through the URL so the page stays shareable.

No JS? Fill the form by hand. The geolocation button needs JavaScript.